Location: Moy Burn
(57.3833°N, 4.0667°W)
Time: 12:43:23
(UTC+00:00)

Cosmos 1741 Rocket - Pass Details

Date: 08 August 2020
Orbit: 761 x 783 km, 74.0° (Epoch: 21 September)

Event Time Altitude Azimuth Distance (km) Brightness Sun altitude
Exits shadow 23:28:36 11° 218° (SW) 2,230 6.0 -16.0°
Maximum altitude 23:33:38 72° 302° (WNW) 816 4.2 -16.2°
Drops below altitude 10° 23:38:57 10° 28° (NNE) 2,337 7.3 -16.3°
Sets 23:41:22 0° 30° (NNE) 3,272 8.1 -16.4°
